| time (UTC) | temp C | wind direction | speed KPH | gust KPH | rain 1hr cm | rain 24hr cm | rain mn cm | humidity % | barometer mb |
| 20260503184534 | 24 | 324 | 4.8 | 14.5 | 0.00 | 0.00 | 0.00 | 49 | 1014.1 |
| 20260503183030 | 23 | 300 | 4.8 | 19.3 | 0.00 | 0.00 | 0.00 | 49 | 1014.2 |
| 20260503180032 | 23 | 312 | 1.6 | 6.4 | 0.00 | 0.00 | 0.00 | 51 | 1014.5 |
| 20260503173034 | 22 | 360 | 1.6 | 6.4 | 0.00 | 0.00 | 0.00 | 57 | 1014.7 |
| 20260503160107 | 16 | 111 | 0.0 | 3.2 | 0.00 | 0.00 | 0.00 | 82 | 1014.8 |
| 20260503120142 | 7 | 157 | 4.8 | 6.4 | 0.00 | 0.00 | 0.00 | 95 | 1013.2 |
| 20260503081534 | 10 | 202 | 1.6 | 6.4 | 0.00 | 0.00 | 0.00 | 93 | 1013.4 |
| 20260503071532 | 11 | 135 | 1.6 | 4.8 | 0.00 | 0.00 | 0.00 | 92 | 1013.5 |
| 20260503051641 | 13 | 295 | 0.0 | 4.8 | 0.00 | 0.00 | 0.00 | 83 | 1013.6 |
| 20260503050029 | 15 | 22 | 0.0 | 1.6 | 0.00 | 0.00 | 0.00 | 83 | 1013.5 |
| 20260503044531 | 15 | 22 | 4.8 | 8.0 | 0.00 | 0.00 | 0.00 | 83 | 1013.4 |
| 20260503043107 | 14 | 29 | 4.8 | 8.0 | 0.00 | 0.00 | 0.00 | 84 | 1013.2 |
| 20260503041531 | 13 | 22 | 4.8 | 8.0 | 0.00 | 0.00 | 0.00 | 82 | 1013.1 |
| 20260503040042 | 14 | 42 | 0.0 | 8.0 | 0.00 | 0.00 | 0.00 | 79 | 1012.9 |
| 20260503034537 | 15 | 45 | 0.0 | 0.0 | 0.00 | 0.00 | 0.00 | 76 | 1012.6 |
| 20260503033031 | 16 | 45 | 0.0 | 4.8 | 0.00 | 0.00 | 0.00 | 73 | 1012.3 |
| 20260503031607 | 17 | 45 | 3.2 | 8.0 | 0.00 | 0.00 | 0.00 | 71 | 1012.0 |
| 20260503030032 | 18 | 45 | 3.2 | 6.4 | 0.00 | 0.00 | 0.00 | 71 | 1011.9 |
| 20260503023036 | 19 | 45 | 3.2 | 6.4 | 0.00 | 0.00 | 0.00 | 67 | 1011.7 |
| 20260503020038 | 21 | 22 | 4.8 | 9.7 | 0.00 | 0.00 | 0.00 | 64 | 1011.6 |
| 20260503014534 | 21 | 356 | 3.2 | 8.0 | 0.00 | 0.00 | 0.00 | 63 | 1011.7 |
| 20260503013143 | 22 | 337 | 3.2 | 6.4 | 0.00 | 0.00 | 0.00 | 60 | 1011.7 |
| 20260503011545 | 22 | 352 | 4.8 | 8.0 | 0.00 | 0.00 | 0.00 | 57 | 1011.8 |
| 20260503004530 | 23 | 22 | 1.6 | 4.8 | 0.00 | 0.00 | 0.00 | 54 | 1012.0 |
| 20260503001608 | 24 | 22 | 4.8 | 8.0 | 0.00 | 0.00 | 0.00 | 50 | 1012.0 |
| 20260503000031 | 25 | 24 | 6.4 | 11.3 | 0.00 | 0.00 | 0.00 | 48 | 1012.2 |
| 20260502234652 | 26 | 28 | 3.2 | 9.7 | 0.00 | 0.00 | 0.00 | 48 | 1012.4 |
| 20260502230036 | 26 | 357 | 4.8 | 9.7 | 0.00 | 0.00 | 0.00 | 47 | 1012.8 |
| 20260502224532 | 26 | 332 | 6.4 | 11.3 | 0.00 | 0.00 | 0.00 | 48 | 1013.1 |
| 20260502221609 | 25 | 19 | 6.4 | 12.9 | 0.00 | 0.00 | 0.00 | 51 | 1013.6 |
| 20260502214643 | 24 | 350 | 1.6 | 8.0 | 0.00 | 0.00 | 0.00 | 54 | 1013.8 |
| 20260502213031 | 22 | 5 | 3.2 | 8.0 | 0.00 | 0.00 | 0.00 | 57 | 1013.9 |
| 20260502210030 | 22 | 15 | 1.6 | 6.4 | 0.00 | 0.00 | 0.00 | 58 | 1014.2 |
| 20260502204528 | 22 | 47 | 3.2 | 9.7 | 0.00 | 0.00 | 0.00 | 59 | 1014.3 |
| 20260502201535 | 20 | 120 | 4.8 | 12.9 | 0.00 | 0.00 | 0.00 | 66 | 1014.4 |
| 20260502200029 | 17 | 236 | 4.8 | 11.3 | 0.00 | 0.00 | 0.00 | 71 | 1014.3 |
| 20260502194535 | 16 | 336 | 6.4 | 11.3 | 0.00 | 0.00 | 0.00 | 70 | 1014.2 |
| 20260502193030 | 17 | 345 | 6.4 | 12.9 | 0.00 | 0.00 | 0.00 | 69 | 1014.9 |
| 20260502191639 | 17 | 335 | 4.8 | 9.7 | 0.00 | 0.00 | 0.00 | 70 | 1015.3 |
| 20260502190107 | 17 | 318 | 4.8 | 11.3 | 0.00 | 0.00 | 0.00 | 70 | 1015.6 |